Time,TemperatureF,DewpointF,PressureIn,WindDirection,WindDirectionDegrees,WindSpeedMPH,WindSpeedGustMPH,Humidity,HourlyPrecipIn,Conditions,Clouds,dailyrainin,SolarRadiationWatts/m^2,SoftwareType,DateUTC
2013-05-15 00:11:00,49.3,34.0,30.02,West,273,1.0,5.0,57,0.00,,,0.00,0,weatherlink.com 1.10,2013-05-15 04:11:00,
2013-05-15 00:26:00,49.2,35.0,30.02,West,279,0.0,8.0,58,0.00,,,0.00,0,weatherlink.com 1.10,2013-05-15 04:26:00,
2013-05-15 00:41:00,49.1,35.0,30.03,West,279,3.0,5.0,58,0.00,,,0.00,0,weatherlink.com 1.10,2013-05-15 04:41:00,
2013-05-15 00:56:00,48.8,35.0,30.03,West,274,3.0,6.0,59,0.00,,,0.00,0,weatherlink.com 1.10,2013-05-15 04:56:00,
2013-05-15 01:11:00,48.5,35.0,30.03,West,277,1.0,5.0,60,0.00,,,0.00,0,weatherlink.com 1.10,2013-05-15 05:11:00,
2013-05-15 01:26:00,48.3,35.0,30.03,West,277,0.0,6.0,61,0.00,,,0.00,0,weatherlink.com 1.10,2013-05-15 05:26:00,
2013-05-15 01:41:00,48.1,35.0,30.03,West,273,0.0,7.0,61,0.00,,,0.00,0,weatherlink.com 1.10,2013-05-15 05:41:00,
2013-05-15 01:56:00,47.8,35.0,30.03,West,273,2.0,5.0,62,0.00,,,0.00,0,weatherlink.com 1.10,2013-05-15 05:56:00,
2013-05-15 02:11:00,47.4,35.0,30.04,West,273,2.0,4.0,63,0.00,,,0.00,0,weatherlink.com 1.10,2013-05-15 06:11:00,
2013-05-15 02:27:00,47.0,35.0,30.03,West,273,2.0,2.0,64,0.00,,,0.00,0,weatherlink.com 1.10,2013-05-15 06:27:00,
2013-05-15 02:42:00,46.5,35.0,30.03,West,273,0.0,1.0,65,0.00,,,0.00,0,weatherlink.com 1.10,2013-05-15 06:42:00,
2013-05-15 02:57:00,45.8,35.0,30.04,West,273,0.0,2.0,66,0.00,,,0.00,0,weatherlink.com 1.10,2013-05-15 06:57:00,
2013-05-15 03:12:00,45.2,35.0,30.03,West,273,0.0,0.0,67,0.00,,,0.00,0,weatherlink.com 1.10,2013-05-15 07:12:00,
2013-05-15 03:27:00,44.8,35.0,30.04,West,273,0.0,0.0,69,0.00,,,0.00,0,weatherlink.com 1.10,2013-05-15 07:27:00,
2013-05-15 03:42:00,44.3,35.0,30.04,West,273,0.0,0.0,70,0.00,,,0.00,0,weatherlink.com 1.10,2013-05-15 07:42:00,
2013-05-15 03:57:00,43.6,35.0,30.04,West,273,0.0,0.0,71,0.00,,,0.00,0,weatherlink.com 1.10,2013-05-15 07:57:00,
2013-05-15 04:12:00,43.0,35.0,30.04,West,273,0.0,0.0,73,0.00,,,0.00,0,weatherlink.com 1.10,2013-05-15 08:12:00,
2013-05-15 04:27:00,42.3,35.0,30.04,West,273,0.0,3.0,74,0.00,,,0.00,0,weatherlink.com 1.10,2013-05-15 08:27:00,
2013-05-15 04:42:00,42.0,35.0,30.04,West,273,0.0,2.0,75,0.00,,,0.00,0,weatherlink.com 1.10,2013-05-15 08:42:00,
2013-05-15 04:57:00,42.1,35.0,30.03,West,273,0.0,0.0,75,0.00,,,0.00,0,weatherlink.com 1.10,2013-05-15 08:57:00,
2013-05-15 05:12:00,42.0,35.0,30.04,West,273,0.0,0.0,76,0.00,,,0.00,0,weatherlink.com 1.10,2013-05-15 09:12:00,
2013-05-15 05:27:00,41.7,35.0,30.04,West,273,0.0,0.0,77,0.00,,,0.00,5,weatherlink.com 1.10,2013-05-15 09:27:00,
2013-05-15 05:42:00,41.5,35.0,30.04,West,273,0.0,0.0,78,0.00,,,0.00,21,weatherlink.com 1.10,2013-05-15 09:42:00,
2013-05-15 05:57:00,42.2,36.0,30.04,West,273,0.0,3.0,78,0.00,,,0.00,23,weatherlink.com 1.10,2013-05-15 09:57:00,
2013-05-15 06:12:00,43.3,36.0,30.04,West,273,0.0,4.0,76,0.00,,,0.00,54,weatherlink.com 1.10,2013-05-15 10:12:00,
2013-05-15 06:27:00,45.2,37.0,30.05,West,273,0.0,3.0,74,0.00,,,0.00,123,weatherlink.com 1.10,2013-05-15 10:27:00,
2013-05-15 06:42:00,48.0,38.0,30.05,West,273,2.0,3.0,68,0.00,,,0.00,183,weatherlink.com 1.10,2013-05-15 10:42:00,
2013-05-15 06:57:00,51.3,39.0,30.04,West,273,0.0,4.0,62,0.00,,,0.00,236,weatherlink.com 1.10,2013-05-15 10:57:00,
2013-05-15 07:12:00,53.9,39.0,30.04,West,273,3.0,5.0,58,0.00,,,0.00,278,weatherlink.com 1.10,2013-05-15 11:12:00,
2013-05-15 07:27:00,55.3,38.0,30.04,West,273,0.0,4.0,53,0.00,,,0.00,327,weatherlink.com 1.10,2013-05-15 11:27:00,
2013-05-15 07:42:00,55.7,39.0,30.05,West,273,0.0,0.0,54,0.00,,,0.00,373,weatherlink.com 1.10,2013-05-15 11:42:00,
2013-05-15 08:28:00,56.4,40.0,30.04,West,273,3.0,4.0,54,0.00,,,0.00,513,weatherlink.com 1.10,2013-05-15 12:28:00,
2013-05-15 08:43:00,56.3,38.0,30.04,West,273,3.0,3.0,51,0.00,,,0.00,559,weatherlink.com 1.10,2013-05-15 12:43:00,
2013-05-15 08:58:00,56.7,36.0,30.04,West,273,3.0,5.0,47,0.00,,,0.00,601,weatherlink.com 1.10,2013-05-15 12:58:00,
2013-05-15 09:13:00,58.7,37.0,30.02,WSW,252,4.0,7.0,44,0.00,,,0.00,647,weatherlink.com 1.10,2013-05-15 13:13:00,
2013-05-15 09:28:00,58.9,40.0,30.01,SSE,158,2.0,8.0,49,0.00,,,0.00,686,weatherlink.com 1.10,2013-05-15 13:28:00,
2013-05-15 09:43:00,58.3,41.0,30.01,SSE,152,3.0,6.0,52,0.00,,,0.00,673,weatherlink.com 1.10,2013-05-15 13:43:00,
2013-05-15 09:58:00,58.3,42.0,30.00,SSE,152,1.0,4.0,55,0.00,,,0.00,726,weatherlink.com 1.10,2013-05-15 13:58:00,
2013-05-15 10:28:00,57.7,45.0,30.00,SE,144,6.0,7.0,64,0.00,,,0.00,814,weatherlink.com 1.10,2013-05-15 14:28:00,
2013-05-15 10:43:00,57.2,46.0,30.00,SE,124,5.0,8.0,66,0.00,,,0.00,833,weatherlink.com 1.10,2013-05-15 14:43:00,
2013-05-15 10:58:00,57.4,47.0,30.00,ESE,105,4.0,11.0,69,0.00,,,0.00,858,weatherlink.com 1.10,2013-05-15 14:58:00,
2013-05-15 11:13:00,57.7,46.0,29.98,ESE,107,3.0,9.0,65,0.00,,,0.00,875,weatherlink.com 1.10,2013-05-15 15:13:00,
2013-05-15 11:28:00,60.4,41.0,29.98,SSW,202,6.0,13.0,49,0.00,,,0.00,891,weatherlink.com 1.10,2013-05-15 15:28:00,
2013-05-15 11:43:00,64.9,40.0,29.96,SSW,205,2.0,10.0,41,0.00,,,0.00,909,weatherlink.com 1.10,2013-05-15 15:43:00,
2013-05-15 11:58:00,66.2,41.0,29.95,SW,221,10.0,16.0,40,0.00,,,0.00,865,weatherlink.com 1.10,2013-05-15 15:58:00,
2013-05-15 12:14:00,66.6,41.0,29.95,SSW,209,11.0,13.0,39,0.00,,,0.00,283,weatherlink.com 1.10,2013-05-15 16:14:00,
2013-05-15 12:29:00,65.5,42.0,29.94,SW,221,12.0,15.0,42,0.00,,,0.00,385,weatherlink.com 1.10,2013-05-15 16:29:00,
2013-05-15 12:44:00,64.9,42.0,29.94,SW,221,5.0,14.0,44,0.00,,,0.00,420,weatherlink.com 1.10,2013-05-15 16:44:00,
2013-05-15 12:59:00,65.0,44.0,29.94,SSW,194,13.0,15.0,46,0.00,,,0.00,341,weatherlink.com 1.10,2013-05-15 16:59:00,
2013-05-15 13:29:00,63.9,41.0,29.92,SSW,207,6.0,16.0,44,0.00,,,0.00,223,weatherlink.com 1.10,2013-05-15 17:29:00,
2013-05-15 13:44:00,64.3,42.0,29.91,South,183,14.0,21.0,44,0.00,,,0.00,411,weatherlink.com 1.10,2013-05-15 17:44:00,
2013-05-15 13:59:00,63.2,41.0,29.90,SSW,209,4.0,18.0,45,0.00,,,0.00,197,weatherlink.com 1.10,2013-05-15 17:59:00,
2013-05-15 14:14:00,63.5,42.0,29.89,South,190,13.0,17.0,45,0.00,,,0.00,244,weatherlink.com 1.10,2013-05-15 18:14:00,
2013-05-15 14:29:00,63.9,43.0,29.88,SSE,165,11.0,19.0,46,0.00,,,0.00,232,weatherlink.com 1.10,2013-05-15 18:29:00,
2013-05-15 14:59:00,63.7,41.0,29.86,SW,221,10.0,18.0,44,0.00,,,0.00,269,weatherlink.com 1.10,2013-05-15 18:59:00,
2013-05-15 15:14:00,63.4,42.0,29.85,SW,233,19.0,22.0,46,0.00,,,0.00,237,weatherlink.com 1.10,2013-05-15 19:14:00,
2013-05-15 15:29:00,62.4,43.0,29.85,SSW,204,9.0,21.0,50,0.00,,,0.00,193,weatherlink.com 1.10,2013-05-15 19:29:00,
2013-05-15 15:44:00,61.4,41.0,29.84,South,181,10.0,21.0,48,0.00,,,0.00,162,weatherlink.com 1.10,2013-05-15 19:44:00,
2013-05-15 15:59:00,60.4,44.0,29.83,SSW,211,15.0,24.0,55,0.00,,,0.00,111,weatherlink.com 1.10,2013-05-15 19:59:00,
2013-05-15 16:14:00,59.6,49.0,29.81,South,180,12.0,17.0,67,0.00,,,0.00,137,weatherlink.com 1.10,2013-05-15 20:14:00,
2013-05-15 16:29:00,58.2,49.0,29.84,SW,232,16.0,22.0,71,0.00,,,0.00,39,weatherlink.com 1.10,2013-05-15 20:29:00,
2013-05-15 16:44:00,57.9,49.0,29.83,SW,221,5.0,18.0,73,0.00,,,0.00,40,weatherlink.com 1.10,2013-05-15 20:44:00,
2013-05-15 16:59:00,58.1,50.0,29.81,SSW,192,7.0,13.0,74,0.00,,,0.00,93,weatherlink.com 1.10,2013-05-15 20:59:00,
2013-05-15 17:14:00,58.0,51.0,29.80,SSW,211,5.0,17.0,77,0.00,,,0.00,51,weatherlink.com 1.10,2013-05-15 21:14:00,
2013-05-15 17:44:00,58.3,51.0,29.78,SW,228,11.0,17.0,77,0.00,,,0.00,25,weatherlink.com 1.10,2013-05-15 21:44:00,
2013-05-15 18:14:00,57.7,51.0,29.76,SSW,207,7.0,25.0,77,0.00,,,0.00,25,weatherlink.com 1.10,2013-05-15 22:14:00,
2013-05-15 18:44:00,57.2,51.0,29.74,SSW,197,11.0,19.0,80,0.00,,,0.00,9,weatherlink.com 1.10,2013-05-15 22:44:00,
2013-05-15 19:14:00,56.7,52.0,29.73,SW,221,9.0,17.0,83,0.00,,,0.00,9,weatherlink.com 1.10,2013-05-15 23:14:00,
2013-05-15 19:29:00,56.7,52.0,29.73,SW,234,11.0,18.0,83,0.00,,,0.00,0,weatherlink.com 1.10,2013-05-15 23:29:00,
2013-05-15 19:44:00,56.8,52.0,29.73,SSW,200,12.0,16.0,83,0.00,,,0.00,0,weatherlink.com 1.10,2013-05-15 23:44:00,
2013-05-15 19:59:00,57.2,52.0,29.72,SSW,202,9.0,13.0,82,0.00,,,0.00,0,weatherlink.com 1.10,2013-05-15 23:59:00,
2013-05-15 20:14:00,57.5,52.0,29.71,SSW,212,7.0,15.0,82,0.00,,,0.00,0,weatherlink.com 1.10,2013-05-16 00:14:00,
2013-05-15 20:44:00,58.4,53.0,29.70,SW,223,10.0,14.0,81,0.00,,,0.00,0,weatherlink.com 1.10,2013-05-16 00:44:00,
2013-05-15 21:14:00,58.7,53.0,29.70,SW,221,8.0,19.0,82,0.00,,,0.00,0,weatherlink.com 1.10,2013-05-16 01:14:00,
2013-05-15 21:59:00,57.9,53.0,29.68,SW,234,7.0,15.0,84,0.00,,,0.00,0,weatherlink.com 1.10,2013-05-16 01:59:00,
2013-05-15 22:15:00,57.7,53.0,29.68,SW,232,9.0,13.0,85,0.00,,,0.00,0,weatherlink.com 1.10,2013-05-16 02:15:00,
2013-05-15 22:30:00,57.6,53.0,29.67,WSW,243,0.0,11.0,85,0.00,,,0.00,0,weatherlink.com 1.10,2013-05-16 02:30:00,
2013-05-15 22:45:00,57.3,53.0,29.67,WSW,237,2.0,9.0,86,0.00,,,0.00,0,weatherlink.com 1.10,2013-05-16 02:45:00,
2013-05-15 23:15:00,56.9,53.0,29.67,WSW,249,2.0,12.0,87,0.00,,,0.00,0,weatherlink.com 1.10,2013-05-16 03:15:00,